Time,TemperatureF,DewpointF,PressureIn,WindDirection,WindDirectionDegrees,WindSpeedMPH,WindSpeedGustMPH,Humidity,HourlyPrecipIn,Conditions,Clouds,dailyrainin,SolarRadiationWatts/m^2,SoftwareType,DateUTC
2013-05-07 00:02:00,59.0,51.8,29.90,North,353,0.0,2.0,77,0.00,,,0.00,0,WeatherCatV1.12B45,2013-05-07 07:02:00,
2013-05-07 00:07:00,59.0,51.8,29.90,North,354,0.0,0.0,77,0.00,,,0.00,0,WeatherCatV1.12B45,2013-05-07 07:07:00,
2013-05-07 00:12:00,59.0,51.8,29.90,North,354,0.0,0.0,77,0.00,,,0.00,0,WeatherCatV1.12B45,2013-05-07 07:12:00,
2013-05-07 00:17:00,59.0,51.8,29.90,North,353,0.0,0.0,77,0.00,,,0.00,0,WeatherCatV1.12B45,2013-05-07 07:17:00,
2013-05-07 00:22:00,58.9,51.7,29.90,North,354,0.0,0.0,77,0.00,,,0.00,0,WeatherCatV1.12B45,2013-05-07 07:22:00,
2013-05-07 00:27:00,58.9,51.7,29.90,North,349,0.0,0.0,77,0.00,,,0.00,0,WeatherCatV1.12B45,2013-05-07 07:27:00,
2013-05-07 00:32:00,58.9,51.7,29.90,North,354,0.0,0.0,77,0.00,,,0.00,0,WeatherCatV1.12B45,2013-05-07 07:32:00,
2013-05-07 00:37:00,58.9,51.7,29.90,North,356,0.0,0.0,77,0.00,,,0.00,0,WeatherCatV1.12B45,2013-05-07 07:37:00,
2013-05-07 00:42:00,58.7,51.5,29.90,NNW,346,0.0,1.0,77,0.00,,,0.00,0,WeatherCatV1.12B45,2013-05-07 07:42:00,
2013-05-07 00:47:00,58.7,51.5,29.90,NNW,342,0.0,0.0,77,0.00,,,0.00,0,WeatherCatV1.12B45,2013-05-07 07:47:00,
2013-05-07 00:52:00,58.7,51.5,29.90,NNW,332,0.0,0.0,77,0.00,,,0.00,0,WeatherCatV1.12B45,2013-05-07 07:52:00,
2013-05-07 00:57:00,58.6,51.4,29.90,NNW,343,0.0,0.0,77,0.00,,,0.00,0,WeatherCatV1.12B45,2013-05-07 07:57:00,
2013-05-07 01:02:00,58.6,51.4,29.90,NNW,336,0.0,0.0,77,0.00,,,0.00,0,WeatherCatV1.12B45,2013-05-07 08:02:00,
2013-05-07 01:07:00,58.6,51.4,29.90,NW,322,0.0,0.0,77,0.00,,,0.00,0,WeatherCatV1.12B45,2013-05-07 08:07:00,
2013-05-07 01:12:00,58.4,51.2,29.90,NNW,335,0.0,1.0,77,0.00,,,0.00,0,WeatherCatV1.12B45,2013-05-07 08:12:00,
2013-05-07 01:17:00,58.4,51.2,29.89,NNW,342,0.0,0.0,77,0.00,,,0.00,0,WeatherCatV1.12B45,2013-05-07 08:17:00,
2013-05-07 01:22:00,58.4,51.2,29.89,North,349,0.0,1.0,77,0.00,,,0.00,0,WeatherCatV1.12B45,2013-05-07 08:22:00,
2013-05-07 01:27:00,58.3,51.5,29.89,North,349,2.0,2.0,78,0.00,,,0.00,0,WeatherCatV1.12B45,2013-05-07 08:27:00,
2013-05-07 01:32:00,58.3,51.5,29.89,North,349,0.0,0.0,78,0.00,,,0.00,0,WeatherCatV1.12B45,2013-05-07 08:32:00,
2013-05-07 01:37:00,58.3,51.1,29.89,North,353,0.0,0.0,77,0.00,,,0.00,0,WeatherCatV1.12B45,2013-05-07 08:37:00,
2013-05-07 01:42:00,58.3,51.1,29.89,North,353,0.0,2.0,77,0.00,,,0.00,0,WeatherCatV1.12B45,2013-05-07 08:42:00,
2013-05-07 01:47:00,58.3,51.1,29.88,North,357,0.0,0.0,77,0.00,,,0.00,0,WeatherCatV1.12B45,2013-05-07 08:47:00,
2013-05-07 01:52:00,58.3,51.1,29.88,North,357,0.0,0.0,77,0.00,,,0.00,0,WeatherCatV1.12B45,2013-05-07 08:52:00,
2013-05-07 01:57:00,58.1,50.9,29.88,North,356,0.0,0.0,77,0.00,,,0.00,0,WeatherCatV1.12B45,2013-05-07 08:57:00,
2013-05-07 02:02:00,58.1,50.9,29.88,North,357,0.0,0.0,77,0.00,,,0.00,0,WeatherCatV1.12B45,2013-05-07 09:02:00,
2013-05-07 02:07:00,58.0,50.8,29.88,North,356,0.0,0.0,77,0.00,,,0.00,0,WeatherCatV1.12B45,2013-05-07 09:07:00,
2013-05-07 02:12:00,58.0,50.8,29.88,North,357,0.0,0.0,77,0.00,,,0.00,0,WeatherCatV1.12B45,2013-05-07 09:12:00,
2013-05-07 02:17:00,57.8,50.6,29.88,North,356,0.0,0.0,77,0.00,,,0.00,0,WeatherCatV1.12B45,2013-05-07 09:17:00,
2013-05-07 02:22:00,57.8,50.6,29.88,North,356,0.0,0.0,77,0.00,,,0.00,0,WeatherCatV1.12B45,2013-05-07 09:22:00,
2013-05-07 02:27:00,57.6,50.4,29.88,North,357,0.0,0.0,77,0.00,,,0.00,0,WeatherCatV1.12B45,2013-05-07 09:27:00,
2013-05-07 02:32:00,57.5,50.3,29.89,North,356,0.0,0.0,77,0.00,,,0.00,0,WeatherCatV1.12B45,2013-05-07 09:32:00,
2013-05-07 02:37:00,57.5,50.7,29.89,North,356,0.0,0.0,78,0.00,,,0.00,0,WeatherCatV1.12B45,2013-05-07 09:37:00,
2013-05-07 02:42:00,57.3,50.5,29.89,North,356,0.0,1.0,78,0.00,,,0.00,0,WeatherCatV1.12B45,2013-05-07 09:42:00,
2013-05-07 02:47:00,57.3,50.5,29.88,North,356,0.0,0.0,78,0.00,,,0.00,0,WeatherCatV1.12B45,2013-05-07 09:47:00,
2013-05-07 02:52:00,57.5,50.7,29.88,North,356,0.0,0.0,78,0.00,,,0.00,0,WeatherCatV1.12B45,2013-05-07 09:52:00,
2013-05-07 02:57:00,57.6,50.8,29.88,North,353,1.0,3.0,78,0.00,,,0.00,0,WeatherCatV1.12B45,2013-05-07 09:57:00,
2013-05-07 03:02:00,57.6,50.4,29.89,North,349,0.0,0.0,77,0.00,,,0.00,0,WeatherCatV1.12B45,2013-05-07 10:02:00,
2013-05-07 03:07:00,57.8,50.6,29.89,North,353,0.0,0.0,77,0.00,,,0.00,0,WeatherCatV1.12B45,2013-05-07 10:07:00,
2013-05-07 03:12:00,57.8,50.6,29.89,NNW,347,0.0,0.0,77,0.00,,,0.00,0,WeatherCatV1.12B45,2013-05-07 10:12:00,
2013-05-07 03:17:00,58.0,50.8,29.89,NNW,347,0.0,0.0,77,0.00,,,0.00,0,WeatherCatV1.12B45,2013-05-07 10:17:00,
2013-05-07 03:22:00,58.1,50.9,29.89,NNW,340,0.0,0.0,77,0.00,,,0.00,0,WeatherCatV1.12B45,2013-05-07 10:22:00,
2013-05-07 03:27:00,58.1,50.9,29.89,NNW,339,0.0,0.0,77,0.00,,,0.00,0,WeatherCatV1.12B45,2013-05-07 10:27:00,
2013-05-07 03:32:00,58.3,51.1,29.89,NNW,333,0.0,0.0,77,0.00,,,0.00,0,WeatherCatV1.12B45,2013-05-07 10:32:00,
2013-05-07 03:37:00,58.3,51.1,29.89,NNW,337,0.0,0.0,77,0.00,,,0.00,0,WeatherCatV1.12B45,2013-05-07 10:37:00,
2013-05-07 03:42:00,58.4,51.2,29.89,NNW,337,0.0,0.0,77,0.00,,,0.00,0,WeatherCatV1.12B45,2013-05-07 10:42:00,
2013-05-07 03:47:00,58.4,51.2,29.89,North,349,0.0,0.0,77,0.00,,,0.00,0,WeatherCatV1.12B45,2013-05-07 10:47:00,
2013-05-07 03:52:00,58.4,51.2,29.89,North,356,0.0,0.0,77,0.00,,,0.00,0,WeatherCatV1.12B45,2013-05-07 10:52:00,
2013-05-07 03:57:00,58.4,51.2,29.89,NNW,340,0.0,0.0,77,0.00,,,0.00,0,WeatherCatV1.12B45,2013-05-07 10:57:00,
2013-05-07 04:02:00,58.4,51.2,29.89,NNW,333,0.0,1.0,77,0.00,,,0.00,0,WeatherCatV1.12B45,2013-05-07 11:02:00,
2013-05-07 04:07:00,58.4,51.2,29.89,North,354,0.0,0.0,77,0.00,,,0.00,0,WeatherCatV1.12B45,2013-05-07 11:07:00,
2013-05-07 04:12:00,58.6,51.4,29.89,North,356,0.0,1.0,77,0.00,,,0.00,0,WeatherCatV1.12B45,2013-05-07 11:12:00,
2013-05-07 04:17:00,58.6,51.4,29.89,NNW,344,0.0,0.0,77,0.00,,,0.00,0,WeatherCatV1.12B45,2013-05-07 11:17:00,
2013-05-07 04:22:00,58.6,51.4,29.89,NNW,346,0.0,0.0,77,0.00,,,0.00,0,WeatherCatV1.12B45,2013-05-07 11:22:00,
2013-05-07 04:27:00,58.6,51.4,29.89,NNW,346,1.0,1.0,77,0.00,,,0.00,0,WeatherCatV1.12B45,2013-05-07 11:27:00,
2013-05-07 04:32:00,58.6,51.4,29.89,NNW,346,0.0,0.0,77,0.00,,,0.00,0,WeatherCatV1.12B45,2013-05-07 11:32:00,
2013-05-07 04:37:00,58.4,51.2,29.89,NNW,346,0.0,0.0,77,0.00,,,0.00,0,WeatherCatV1.12B45,2013-05-07 11:37:00,
2013-05-07 04:42:00,58.4,51.2,29.89,NNW,347,0.0,1.0,77,0.00,,,0.00,0,WeatherCatV1.12B45,2013-05-07 11:42:00,
2013-05-07 04:47:00,58.4,51.6,29.89,NNW,339,1.0,1.0,78,0.00,,,0.00,0,WeatherCatV1.12B45,2013-05-07 11:47:00,
2013-05-07 04:52:00,58.4,51.6,29.89,NNW,347,0.0,1.0,78,0.00,,,0.00,0,WeatherCatV1.12B45,2013-05-07 11:52:00,
2013-05-07 04:57:00,58.4,51.6,29.89,North,349,0.0,0.0,78,0.00,,,0.00,0,WeatherCatV1.12B45,2013-05-07 11:57:00,
2013-05-07 05:02:00,58.4,51.6,29.89,NNW,342,0.0,0.0,78,0.00,,,0.00,0,WeatherCatV1.12B45,2013-05-07 12:02:00,
2013-05-07 05:07:00,58.3,51.5,29.89,NNW,344,0.0,0.0,78,0.00,,,0.00,0,WeatherCatV1.12B45,2013-05-07 12:07:00,
2013-05-07 05:12:00,58.3,51.5,29.89,NNW,346,0.0,0.0,78,0.00,,,0.00,0,WeatherCatV1.12B45,2013-05-07 12:12:00,
2013-05-07 05:17:00,58.3,51.5,29.90,NNW,344,0.0,0.0,78,0.00,,,0.00,0,WeatherCatV1.12B45,2013-05-07 12:17:00,
2013-05-07 05:22:00,58.3,51.5,29.90,NNW,346,0.0,0.0,78,0.00,,,0.00,0,WeatherCatV1.12B45,2013-05-07 12:22:00,
2013-05-07 05:27:00,58.3,51.8,29.90,NNW,343,0.0,0.0,79,0.00,,,0.00,0,WeatherCatV1.12B45,2013-05-07 12:27:00,
2013-05-07 05:32:00,58.3,51.8,29.90,NNW,344,0.0,0.0,79,0.00,,,0.00,0,WeatherCatV1.12B45,2013-05-07 12:32:00,
2013-05-07 05:37:00,58.3,51.8,29.90,NNW,340,0.0,0.0,79,0.00,,,0.00,0,WeatherCatV1.12B45,2013-05-07 12:37:00,
2013-05-07 05:42:00,58.3,52.2,29.90,NW,323,0.0,1.0,80,0.00,,,0.00,0,WeatherCatV1.12B45,2013-05-07 12:42:00,
2013-05-07 05:47:00,58.3,52.2,29.90,NNW,329,0.0,0.0,80,0.00,,,0.00,0,WeatherCatV1.12B45,2013-05-07 12:47:00,
2013-05-07 05:52:00,58.1,52.0,29.90,NNW,343,0.0,1.0,80,0.00,,,0.00,0,WeatherCatV1.12B45,2013-05-07 12:52:00,
2013-05-07 05:57:00,58.1,52.0,29.90,NNW,344,0.0,2.0,80,0.00,,,0.00,0,WeatherCatV1.12B45,2013-05-07 12:57:00,
2013-05-07 06:02:00,58.1,52.3,29.90,NNW,342,0.0,1.0,81,0.00,,,0.00,0,WeatherCatV1.12B45,2013-05-07 13:02:00,
2013-05-07 06:07:00,58.1,52.3,29.90,NNW,342,0.0,0.0,81,0.00,,,0.00,0,WeatherCatV1.12B45,2013-05-07 13:07:00,
2013-05-07 06:12:00,58.1,52.3,29.90,NNW,344,0.0,1.0,81,0.00,,,0.00,0,WeatherCatV1.12B45,2013-05-07 13:12:00,
2013-05-07 06:17:00,58.1,52.3,29.90,NNW,344,0.0,0.0,81,0.00,,,0.00,0,WeatherCatV1.12B45,2013-05-07 13:17:00,
2013-05-07 06:22:00,58.1,52.3,29.90,NNW,336,0.0,1.0,81,0.00,,,0.00,0,WeatherCatV1.12B45,2013-05-07 13:22:00,
2013-05-07 06:27:00,58.0,52.2,29.90,NNW,336,0.0,1.0,81,0.00,,,0.00,0,WeatherCatV1.12B45,2013-05-07 13:27:00,
2013-05-07 06:32:00,58.0,52.2,29.91,North,350,0.0,0.0,81,0.00,,,0.00,0,WeatherCatV1.12B45,2013-05-07 13:32:00,
2013-05-07 06:37:00,58.0,52.2,29.91,NW,326,0.0,0.0,81,0.00,,,0.00,0,WeatherCatV1.12B45,2013-05-07 13:37:00,
2013-05-07 06:42:00,58.0,52.2,29.91,NNW,329,0.0,0.0,81,0.00,,,0.00,11,WeatherCatV1.12B45,2013-05-07 13:42:00,
2013-05-07 06:47:00,58.0,52.5,29.91,NNW,329,0.0,0.0,82,0.00,,,0.00,11,WeatherCatV1.12B45,2013-05-07 13:47:00,
2013-05-07 06:52:00,58.0,52.5,29.91,NNW,336,0.0,1.0,82,0.00,,,0.00,11,WeatherCatV1.12B45,2013-05-07 13:52:00,
2013-05-07 06:57:00,58.1,52.6,29.91,NNW,339,0.0,0.0,82,0.00,,,0.00,11,WeatherCatV1.12B45,2013-05-07 13:57:00,
2013-05-07 07:02:00,58.1,52.6,29.91,NNW,336,0.0,0.0,82,0.00,,,0.00,32,WeatherCatV1.12B45,2013-05-07 14:02:00,
2013-05-07 07:07:00,58.1,52.6,29.91,NNW,346,0.0,0.0,82,0.00,,,0.00,40,WeatherCatV1.12B45,2013-05-07 14:07:00,
2013-05-07 07:12:00,58.3,52.8,29.91,NNW,346,0.0,0.0,82,0.00,,,0.00,40,WeatherCatV1.12B45,2013-05-07 14:12:00,
2013-05-07 07:17:00,58.4,52.9,29.91,NNW,346,0.0,0.0,82,0.00,,,0.00,40,WeatherCatV1.12B45,2013-05-07 14:17:00,
2013-05-07 07:22:00,58.6,52.8,29.91,NNW,343,0.0,0.0,81,0.00,,,0.00,100,WeatherCatV1.12B45,2013-05-07 14:22:00,
2013-05-07 07:27:00,58.7,52.5,29.91,North,353,1.0,2.0,80,0.00,,,0.00,116,WeatherCatV1.12B45,2013-05-07 14:27:00,
2013-05-07 07:32:00,59.0,52.5,29.92,North,353,0.0,1.0,79,0.00,,,0.00,125,WeatherCatV1.12B45,2013-05-07 14:32:00,
2013-05-07 07:37:00,59.3,52.8,29.92,NNW,340,0.0,0.0,79,0.00,,,0.00,157,WeatherCatV1.12B45,2013-05-07 14:37:00,
2013-05-07 07:42:00,59.6,52.7,29.92,North,356,0.0,1.0,78,0.00,,,0.00,164,WeatherCatV1.12B45,2013-05-07 14:42:00,
2013-05-07 07:47:00,59.8,52.6,29.93,North,349,0.0,0.0,77,0.00,,,0.00,165,WeatherCatV1.12B45,2013-05-07 14:47:00,
2013-05-07 07:52:00,60.2,53.0,29.93,NW,320,0.0,2.0,77,0.00,,,0.00,162,WeatherCatV1.12B45,2013-05-07 14:52:00,
2013-05-07 07:57:00,60.7,53.1,29.93,NW,312,0.0,0.0,76,0.00,,,0.00,230,WeatherCatV1.12B45,2013-05-07 14:57:00,
2013-05-07 08:02:00,60.9,53.3,29.93,NNW,343,0.0,1.0,76,0.00,,,0.00,230,WeatherCatV1.12B45,2013-05-07 15:02:00,
2013-05-07 08:07:00,61.2,53.6,29.93,North,356,0.0,0.0,76,0.00,,,0.00,245,WeatherCatV1.12B45,2013-05-07 15:07:00,
2013-05-07 08:12:00,61.3,52.9,29.93,NNW,342,0.0,3.0,74,0.00,,,0.00,255,WeatherCatV1.12B45,2013-05-07 15:12:00,
2013-05-07 08:17:00,61.5,53.1,29.93,North,357,0.0,0.0,74,0.00,,,0.00,255,WeatherCatV1.12B45,2013-05-07 15:17:00,
2013-05-07 08:22:00,61.5,53.1,29.93,North,356,0.0,0.0,74,0.00,,,0.00,255,WeatherCatV1.12B45,2013-05-07 15:22:00,
2013-05-07 08:27:00,61.6,53.2,29.93,North,349,0.0,0.0,74,0.00,,,0.00,176,WeatherCatV1.12B45,2013-05-07 15:27:00,
2013-05-07 08:32:00,61.6,53.2,29.93,North,356,0.0,0.0,74,0.00,,,0.00,176,WeatherCatV1.12B45,2013-05-07 15:32:00,
2013-05-07 08:37:00,61.8,53.4,29.93,North,356,0.0,0.0,74,0.00,,,0.00,197,WeatherCatV1.12B45,2013-05-07 15:37:00,
2013-05-07 08:42:00,61.8,53.0,29.93,NW,326,0.0,2.0,73,0.00,,,0.00,192,WeatherCatV1.12B45,2013-05-07 15:42:00,
2013-05-07 08:47:00,62.0,53.6,29.93,NW,320,0.0,0.0,74,0.00,,,0.00,185,WeatherCatV1.12B45,2013-05-07 15:47:00,
2013-05-07 08:52:00,62.0,53.2,29.93,NNW,329,0.0,1.0,73,0.00,,,0.00,188,WeatherCatV1.12B45,2013-05-07 15:52:00,
2013-05-07 08:57:00,62.0,53.2,29.93,NW,323,0.0,1.0,73,0.00,,,0.00,195,WeatherCatV1.12B45,2013-05-07 15:57:00,
2013-05-07 09:02:00,61.8,53.0,29.94,NW,313,2.0,3.0,73,0.00,,,0.00,208,WeatherCatV1.12B45,2013-05-07 16:02:00,
2013-05-07 09:07:00,61.6,52.9,29.94,NW,313,0.0,1.0,73,0.00,,,0.00,225,WeatherCatV1.12B45,2013-05-07 16:07:00,
2013-05-07 09:12:00,61.6,52.9,29.94,NW,309,1.0,1.0,73,0.00,,,0.00,252,WeatherCatV1.12B45,2013-05-07 16:12:00,
2013-05-07 09:17:00,61.8,53.4,29.94,NW,326,0.0,3.0,74,0.00,,,0.00,310,WeatherCatV1.12B45,2013-05-07 16:17:00,
2013-05-07 09:22:00,62.1,53.3,29.94,NNW,332,0.0,3.0,73,0.00,,,0.00,322,WeatherCatV1.12B45,2013-05-07 16:22:00,
2013-05-07 09:27:00,62.4,53.6,29.94,North,353,0.0,0.0,73,0.00,,,0.00,357,WeatherCatV1.12B45,2013-05-07 16:27:00,
2013-05-07 09:32:00,62.7,53.5,29.94,North,357,0.0,0.0,72,0.00,,,0.00,345,WeatherCatV1.12B45,2013-05-07 16:32:00,
2013-05-07 09:37:00,63.1,53.5,29.94,North,357,0.0,0.0,71,0.00,,,0.00,345,WeatherCatV1.12B45,2013-05-07 16:37:00,
2013-05-07 09:42:00,63.5,53.9,29.94,North,353,0.0,0.0,71,0.00,,,0.00,345,WeatherCatV1.12B45,2013-05-07 16:42:00,
2013-05-07 09:47:00,63.9,53.5,29.95,North,350,6.0,6.0,69,0.00,,,0.00,345,WeatherCatV1.12B45,2013-05-07 16:47:00,
2013-05-07 09:52:00,64.0,53.6,29.95,North,356,1.0,1.0,69,0.00,,,0.00,516,WeatherCatV1.12B45,2013-05-07 16:52:00,
2013-05-07 09:57:00,64.0,53.6,29.95,North,353,2.0,2.0,69,0.00,,,0.00,516,WeatherCatV1.12B45,2013-05-07 16:57:00,
2013-05-07 10:02:00,63.9,53.5,29.95,North,353,0.0,2.0,69,0.00,,,0.00,403,WeatherCatV1.12B45,2013-05-07 17:02:00,
2013-05-07 10:07:00,64.0,54.0,29.95,NNW,344,2.0,5.0,70,0.00,,,0.00,438,WeatherCatV1.12B45,2013-05-07 17:07:00,
2013-05-07 10:12:00,64.2,53.8,29.95,NNW,337,2.0,7.0,69,0.00,,,0.00,415,WeatherCatV1.12B45,2013-05-07 17:12:00,
2013-05-07 10:17:00,63.9,53.5,29.95,North,350,0.0,1.0,69,0.00,,,0.00,457,WeatherCatV1.12B45,2013-05-07 17:17:00,
2013-05-07 10:22:00,63.9,53.5,29.95,North,353,0.0,8.0,69,0.00,,,0.00,465,WeatherCatV1.12B45,2013-05-07 17:22:00,
2013-05-07 10:27:00,63.9,53.5,29.95,NNW,347,0.0,7.0,69,0.00,,,0.00,473,WeatherCatV1.12B45,2013-05-07 17:27:00,
2013-05-07 10:32:00,63.7,53.3,29.95,North,353,3.0,5.0,69,0.00,,,0.00,473,WeatherCatV1.12B45,2013-05-07 17:32:00,
2013-05-07 10:37:00,64.0,54.0,29.95,North,353,1.0,5.0,70,0.00,,,0.00,473,WeatherCatV1.12B45,2013-05-07 17:37:00,
2013-05-07 10:42:00,64.5,54.1,29.95,North,350,0.0,5.0,69,0.00,,,0.00,880,WeatherCatV1.12B45,2013-05-07 17:42:00,
2013-05-07 10:47:00,65.3,54.1,29.95,NNW,342,0.0,3.0,67,0.00,,,0.00,873,WeatherCatV1.12B45,2013-05-07 17:47:00,
2013-05-07 10:52:00,66.0,54.3,29.95,North,354,0.0,3.0,66,0.00,,,0.00,873,WeatherCatV1.12B45,2013-05-07 17:52:00,
2013-05-07 10:57:00,66.3,54.2,29.95,North,353,2.0,5.0,65,0.00,,,0.00,915,WeatherCatV1.12B45,2013-05-07 17:57:00,
2013-05-07 11:02:00,66.4,54.3,29.95,North,353,1.0,5.0,65,0.00,,,0.00,915,WeatherCatV1.12B45,2013-05-07 18:02:00,
2013-05-07 11:07:00,66.6,54.5,29.95,North,353,2.0,2.0,65,0.00,,,0.00,915,WeatherCatV1.12B45,2013-05-07 18:07:00,
2013-05-07 11:12:00,66.8,54.2,29.95,North,357,0.0,0.0,64,0.00,,,0.00,915,WeatherCatV1.12B45,2013-05-07 18:12:00,
2013-05-07 11:17:00,67.1,54.5,29.95,North,357,0.0,1.0,64,0.00,,,0.00,915,WeatherCatV1.12B45,2013-05-07 18:17:00,
2013-05-07 11:22:00,66.9,54.3,29.95,North,357,1.0,1.0,64,0.00,,,0.00,915,WeatherCatV1.12B45,2013-05-07 18:22:00,
2013-05-07 11:27:00,66.9,53.9,29.95,NNW,347,2.0,2.0,63,0.00,,,0.00,915,WeatherCatV1.12B45,2013-05-07 18:27:00,
2013-05-07 11:32:00,66.4,53.8,29.96,NNW,340,1.0,2.0,64,0.00,,,0.00,915,WeatherCatV1.12B45,2013-05-07 18:32:00,
2013-05-07 11:37:00,66.1,54.0,29.96,North,356,2.0,3.0,65,0.00,,,0.00,915,WeatherCatV1.12B45,2013-05-07 18:37:00,
2013-05-07 11:42:00,66.1,54.0,29.96,North,353,2.0,6.0,65,0.00,,,0.00,915,WeatherCatV1.12B45,2013-05-07 18:42:00,
2013-05-07 11:47:00,66.1,54.0,29.96,North,0,1.0,1.0,65,0.00,,,0.00,915,WeatherCatV1.12B45,2013-05-07 18:47:00,
2013-05-07 11:52:00,66.1,54.0,29.96,North,357,0.0,3.0,65,0.00,,,0.00,915,WeatherCatV1.12B45,2013-05-07 18:52:00,
2013-05-07 11:57:00,66.1,54.0,29.96,North,0,0.0,0.0,65,0.00,,,0.00,915,WeatherCatV1.12B45,2013-05-07 18:57:00,
2013-05-07 12:02:00,66.0,53.9,29.96,North,0,0.0,2.0,65,0.00,,,0.00,915,WeatherCatV1.12B45,2013-05-07 19:02:00,
2013-05-07 12:07:00,66.3,53.7,29.96,North,0,2.0,2.0,64,0.00,,,0.00,915,WeatherCatV1.12B45,2013-05-07 19:07:00,
2013-05-07 12:12:00,66.3,53.7,29.96,North,0,1.0,3.0,64,0.00,,,0.00,523,WeatherCatV1.12B45,2013-05-07 19:12:00,
2013-05-07 12:17:00,66.3,53.7,29.96,North,0,1.0,3.0,64,0.00,,,0.00,517,WeatherCatV1.12B45,2013-05-07 19:17:00,
2013-05-07 12:22:00,66.4,53.8,29.96,North,0,2.0,3.0,64,0.00,,,0.00,697,WeatherCatV1.12B45,2013-05-07 19:22:00,
2013-05-07 12:27:00,66.3,53.7,29.96,North,357,1.0,3.0,64,0.00,,,0.00,697,WeatherCatV1.12B45,2013-05-07 19:27:00,
2013-05-07 12:32:00,66.1,53.6,29.96,North,353,1.0,2.0,64,0.00,,,0.00,697,WeatherCatV1.12B45,2013-05-07 19:32:00,
2013-05-07 12:37:00,65.6,53.1,29.96,North,357,2.0,5.0,64,0.00,,,0.00,697,WeatherCatV1.12B45,2013-05-07 19:37:00,
2013-05-07 12:42:00,65.0,52.5,29.96,North,357,2.0,8.0,64,0.00,,,0.00,697,WeatherCatV1.12B45,2013-05-07 19:42:00,
2013-05-07 12:47:00,64.8,52.3,29.96,North,356,1.0,2.0,64,0.00,,,0.00,697,WeatherCatV1.12B45,2013-05-07 19:47:00,
2013-05-07 12:52:00,64.7,52.2,29.96,North,0,0.0,1.0,64,0.00,,,0.00,697,WeatherCatV1.12B45,2013-05-07 19:52:00,
2013-05-07 12:57:00,64.7,52.2,29.96,North,357,3.0,3.0,64,0.00,,,0.00,697,WeatherCatV1.12B45,2013-05-07 19:57:00,
2013-05-07 13:02:00,64.3,51.9,29.96,North,357,0.0,0.0,64,0.00,,,0.00,697,WeatherCatV1.12B45,2013-05-07 20:02:00,
2013-05-07 13:07:00,64.0,53.6,29.96,North,356,0.0,5.0,69,0.00,,,0.00,421,WeatherCatV1.12B45,2013-05-07 20:07:00,
2013-05-07 13:12:00,64.0,54.0,29.96,North,353,1.0,1.0,70,0.00,,,0.00,496,WeatherCatV1.12B45,2013-05-07 20:12:00,
2013-05-07 13:17:00,64.7,53.9,29.95,North,356,0.0,2.0,68,0.00,,,0.00,496,WeatherCatV1.12B45,2013-05-07 20:17:00,
2013-05-07 13:22:00,64.8,54.0,29.95,North,357,0.0,0.0,68,0.00,,,0.00,496,WeatherCatV1.12B45,2013-05-07 20:22:00,
2013-05-07 13:27:00,66.1,54.0,29.95,North,353,0.0,2.0,65,0.00,,,0.00,496,WeatherCatV1.12B45,2013-05-07 20:27:00,
2013-05-07 13:32:00,66.4,54.3,29.95,North,357,3.0,3.0,65,0.00,,,0.00,961,WeatherCatV1.12B45,2013-05-07 20:32:00,
2013-05-07 13:37:00,66.8,53.8,29.95,North,356,0.0,3.0,63,0.00,,,0.00,961,WeatherCatV1.12B45,2013-05-07 20:37:00,
2013-05-07 13:42:00,67.3,53.4,29.95,North,357,0.0,2.0,61,0.00,,,0.00,940,WeatherCatV1.12B45,2013-05-07 20:42:00,
2013-05-07 13:47:00,67.8,52.9,29.95,North,357,1.0,2.0,59,0.00,,,0.00,934,WeatherCatV1.12B45,2013-05-07 20:47:00,
2013-05-07 13:52:00,67.9,52.6,29.95,North,357,1.0,2.0,58,0.00,,,0.00,922,WeatherCatV1.12B45,2013-05-07 20:52:00,
2013-05-07 13:57:00,68.1,52.3,29.95,North,0,0.0,2.0,57,0.00,,,0.00,927,WeatherCatV1.12B45,2013-05-07 20:57:00,
2013-05-07 14:02:00,68.6,52.3,29.94,NNW,342,0.0,6.0,56,0.00,,,0.00,924,WeatherCatV1.12B45,2013-05-07 21:02:00,
2013-05-07 14:07:00,68.9,52.5,29.94,North,354,1.0,2.0,56,0.00,,,0.00,911,WeatherCatV1.12B45,2013-05-07 21:07:00,
2013-05-07 14:12:00,69.4,52.0,29.94,NNW,336,1.0,5.0,54,0.00,,,0.00,904,WeatherCatV1.12B45,2013-05-07 21:12:00,
2013-05-07 14:17:00,69.6,52.2,29.94,NNW,344,2.0,2.0,54,0.00,,,0.00,906,WeatherCatV1.12B45,2013-05-07 21:17:00,
2013-05-07 14:22:00,70.1,52.7,29.94,North,0,1.0,3.0,54,0.00,,,0.00,906,WeatherCatV1.12B45,2013-05-07 21:22:00,
2013-05-07 14:27:00,70.1,52.7,29.94,North,354,1.0,2.0,54,0.00,,,0.00,906,WeatherCatV1.12B45,2013-05-07 21:27:00,
2013-05-07 14:32:00,70.1,52.7,29.94,North,0,3.0,5.0,54,0.00,,,0.00,878,WeatherCatV1.12B45,2013-05-07 21:32:00,
2013-05-07 14:37:00,69.9,51.5,29.94,North,0,1.0,3.0,52,0.00,,,0.00,871,WeatherCatV1.12B45,2013-05-07 21:37:00,
2013-05-07 14:42:00,69.6,51.2,29.94,North,357,1.0,5.0,52,0.00,,,0.00,866,WeatherCatV1.12B45,2013-05-07 21:42:00,
2013-05-07 14:47:00,69.3,51.9,29.93,North,357,1.0,3.0,54,0.00,,,0.00,859,WeatherCatV1.12B45,2013-05-07 21:47:00,
2013-05-07 14:52:00,69.1,52.2,29.93,North,357,3.0,3.0,55,0.00,,,0.00,859,WeatherCatV1.12B45,2013-05-07 21:52:00,
2013-05-07 14:57:00,68.8,52.0,29.93,North,356,2.0,8.0,55,0.00,,,0.00,859,WeatherCatV1.12B45,2013-05-07 21:57:00,
2013-05-07 15:02:00,68.9,52.1,29.93,North,353,2.0,5.0,55,0.00,,,0.00,829,WeatherCatV1.12B45,2013-05-07 22:02:00,
2013-05-07 15:07:00,68.6,51.3,29.93,NNW,339,1.0,7.0,54,0.00,,,0.00,816,WeatherCatV1.12B45,2013-05-07 22:07:00,
2013-05-07 15:12:00,68.4,50.6,29.93,North,0,2.0,6.0,53,0.00,,,0.00,802,WeatherCatV1.12B45,2013-05-07 22:12:00,
2013-05-07 15:17:00,68.3,50.5,29.93,North,350,1.0,1.0,53,0.00,,,0.00,801,WeatherCatV1.12B45,2013-05-07 22:17:00,
2013-05-07 15:22:00,68.3,50.5,29.93,NNW,343,1.0,1.0,53,0.00,,,0.00,757,WeatherCatV1.12B45,2013-05-07 22:22:00,
2013-05-07 15:27:00,68.3,50.5,29.93,North,357,1.0,5.0,53,0.00,,,0.00,757,WeatherCatV1.12B45,2013-05-07 22:27:00,
2013-05-07 15:32:00,67.9,50.1,29.92,North,356,0.0,9.0,53,0.00,,,0.00,252,WeatherCatV1.12B45,2013-05-07 22:32:00,
2013-05-07 15:37:00,67.6,50.8,29.92,North,357,3.0,3.0,55,0.00,,,0.00,252,WeatherCatV1.12B45,2013-05-07 22:37:00,
2013-05-07 15:42:00,67.6,50.8,29.92,North,357,3.0,3.0,55,0.00,,,0.00,252,WeatherCatV1.12B45,2013-05-07 22:42:00,
2013-05-07 15:47:00,67.8,51.0,29.92,North,357,2.0,5.0,55,0.00,,,0.00,252,WeatherCatV1.12B45,2013-05-07 22:47:00,
2013-05-07 15:52:00,67.8,51.0,29.92,NNW,342,2.0,2.0,55,0.00,,,0.00,252,WeatherCatV1.12B45,2013-05-07 22:52:00,
2013-05-07 15:57:00,67.3,50.6,29.92,North,357,0.0,7.0,55,0.00,,,0.00,230,WeatherCatV1.12B45,2013-05-07 22:57:00,
2013-05-07 16:02:00,67.3,50.6,29.92,North,357,3.0,3.0,55,0.00,,,0.00,230,WeatherCatV1.12B45,2013-05-07 23:02:00,
2013-05-07 16:07:00,67.3,50.6,29.92,North,353,4.0,4.0,55,0.00,,,0.00,230,WeatherCatV1.12B45,2013-05-07 23:07:00,
2013-05-07 16:12:00,67.3,50.6,29.92,North,353,4.0,4.0,55,0.00,,,0.00,230,WeatherCatV1.12B45,2013-05-07 23:12:00,
2013-05-07 16:17:00,-999.0,-99.9,29.92,North,-999,-999.0,0.0,-999,0.00,,,0.00,,WeatherCatV1.12B45,2013-05-07 23:17:00,
2013-05-07 16:22:00,-999.0,-99.9,29.92,North,-999,-999.0,0.0,-999,0.00,,,0.00,,WeatherCatV1.12B45,2013-05-07 23:22:00,
2013-05-07 16:27:00,-999.0,-99.9,29.92,North,-999,-999.0,0.0,-999,0.00,,,0.00,,WeatherCatV1.12B45,2013-05-07 23:27:00,
2013-05-07 16:32:00,65.8,51.1,29.92,North,353,1.0,7.0,59,0.00,,,0.00,79,WeatherCatV1.12B45,2013-05-07 23:32:00,
2013-05-07 16:37:00,65.8,51.5,29.92,North,350,1.0,2.0,60,0.00,,,0.00,99,WeatherCatV1.12B45,2013-05-07 23:37:00,
2013-05-07 16:42:00,65.6,52.2,29.92,North,0,2.0,2.0,62,0.00,,,0.00,99,WeatherCatV1.12B45,2013-05-07 23:42:00,
2013-05-07 16:47:00,65.8,52.0,29.91,North,357,0.0,4.0,61,0.00,,,0.00,114,WeatherCatV1.12B45,2013-05-07 23:47:00,
2013-05-07 16:52:00,66.0,51.7,29.91,North,354,1.0,3.0,60,0.00,,,0.00,72,WeatherCatV1.12B45,2013-05-07 23:52:00,
2013-05-07 16:57:00,66.1,51.3,29.91,North,357,0.0,6.0,59,0.00,,,0.00,67,WeatherCatV1.12B45,2013-05-07 23:57:00,
2013-05-07 17:02:00,66.1,52.3,29.91,North,0,2.0,7.0,61,0.00,,,0.00,67,WeatherCatV1.12B45,2013-05-08 00:02:00,
2013-05-07 17:07:00,66.1,52.3,29.91,North,357,2.0,3.0,61,0.00,,,0.00,91,WeatherCatV1.12B45,2013-05-08 00:07:00,
2013-05-07 17:12:00,66.3,52.0,29.91,North,0,0.0,2.0,60,0.00,,,0.00,104,WeatherCatV1.12B45,2013-05-08 00:12:00,
2013-05-07 17:17:00,66.4,52.1,29.91,North,350,4.0,6.0,60,0.00,,,0.00,104,WeatherCatV1.12B45,2013-05-08 00:17:00,
2013-05-07 17:22:00,66.4,52.1,29.91,North,353,0.0,4.0,60,0.00,,,0.00,104,WeatherCatV1.12B45,2013-05-08 00:22:00,
2013-05-07 17:27:00,66.8,52.5,29.91,NNW,329,0.0,2.0,60,0.00,,,0.00,104,WeatherCatV1.12B45,2013-05-08 00:27:00,
2013-05-07 17:32:00,66.8,52.0,29.91,North,354,1.0,1.0,59,0.00,,,0.00,413,WeatherCatV1.12B45,2013-05-08 00:32:00,
2013-05-07 17:37:00,66.4,51.6,29.91,North,357,0.0,3.0,59,0.00,,,0.00,70,WeatherCatV1.12B45,2013-05-08 00:37:00,
2013-05-07 17:42:00,66.4,51.6,29.91,North,357,0.0,2.0,59,0.00,,,0.00,70,WeatherCatV1.12B45,2013-05-08 00:42:00,
2013-05-07 17:47:00,66.4,51.6,29.91,North,0,0.0,2.0,59,0.00,,,0.00,70,WeatherCatV1.12B45,2013-05-08 00:47:00,
2013-05-07 17:52:00,66.3,51.5,29.91,North,356,1.0,1.0,59,0.00,,,0.00,70,WeatherCatV1.12B45,2013-05-08 00:52:00,
2013-05-07 17:57:00,66.3,51.5,29.91,North,354,0.0,1.0,59,0.00,,,0.00,70,WeatherCatV1.12B45,2013-05-08 00:57:00,
2013-05-07 18:02:00,66.3,51.5,29.91,North,357,1.0,6.0,59,0.00,,,0.00,77,WeatherCatV1.12B45,2013-05-08 01:02:00,
2013-05-07 18:07:00,66.1,50.9,29.91,North,357,1.0,6.0,58,0.00,,,0.00,77,WeatherCatV1.12B45,2013-05-08 01:07:00,
2013-05-07 18:12:00,66.1,50.9,29.91,North,354,0.0,0.0,58,0.00,,,0.00,77,WeatherCatV1.12B45,2013-05-08 01:12:00,
2013-05-07 18:17:00,66.4,51.2,29.92,North,357,0.0,0.0,58,0.00,,,0.00,99,WeatherCatV1.12B45,2013-05-08 01:17:00,
2013-05-07 18:22:00,66.3,51.5,29.92,North,353,1.0,2.0,59,0.00,,,0.00,157,WeatherCatV1.12B45,2013-05-08 01:22:00,
2013-05-07 18:27:00,66.0,53.0,29.92,WNW,288,0.0,0.0,63,0.00,,,0.00,157,WeatherCatV1.12B45,2013-05-08 01:27:00,
2013-05-07 18:32:00,65.3,52.4,29.92,North,353,1.0,1.0,63,0.00,,,0.00,157,WeatherCatV1.12B45,2013-05-08 01:32:00,
2013-05-07 18:37:00,64.5,51.6,29.92,North,354,0.0,2.0,63,0.00,,,0.00,157,WeatherCatV1.12B45,2013-05-08 01:37:00,
2013-05-07 18:42:00,64.3,52.7,29.92,North,356,0.0,0.0,66,0.00,,,0.00,157,WeatherCatV1.12B45,2013-05-08 01:42:00,
2013-05-07 18:47:00,63.9,52.3,29.92,North,357,2.0,2.0,66,0.00,,,0.00,157,WeatherCatV1.12B45,2013-05-08 01:47:00,
2013-05-07 18:52:00,63.1,51.6,29.92,North,357,0.0,3.0,66,0.00,,,0.00,157,WeatherCatV1.12B45,2013-05-08 01:52:00,
2013-05-07 18:57:00,62.3,52.4,29.92,North,353,2.0,5.0,70,0.00,,,0.00,63,WeatherCatV1.12B45,2013-05-08 01:57:00,
2013-05-07 19:02:00,61.6,52.1,29.92,North,356,2.0,3.0,71,0.00,,,0.00,95,WeatherCatV1.12B45,2013-05-08 02:02:00,
2013-05-07 19:07:00,61.2,52.1,29.92,North,349,6.0,6.0,72,0.00,,,0.00,40,WeatherCatV1.12B45,2013-05-08 02:07:00,
2013-05-07 19:12:00,60.7,52.0,29.92,West,260,1.0,3.0,73,0.00,,,0.00,37,WeatherCatV1.12B45,2013-05-08 02:12:00,
2013-05-07 19:17:00,60.1,52.1,29.93,WSW,246,3.0,3.0,75,0.00,,,0.00,33,WeatherCatV1.12B45,2013-05-08 02:17:00,
2013-05-07 19:22:00,59.6,52.4,29.93,West,264,3.0,5.0,77,0.00,,,0.00,33,WeatherCatV1.12B45,2013-05-08 02:22:00,
2013-05-07 19:27:00,59.0,51.8,29.93,North,353,1.0,1.0,77,0.00,,,0.00,26,WeatherCatV1.12B45,2013-05-08 02:27:00,
2013-05-07 19:32:00,58.3,52.2,29.93,North,350,0.0,6.0,80,0.00,,,0.00,21,WeatherCatV1.12B45,2013-05-08 02:32:00,
2013-05-07 19:37:00,58.3,52.2,29.93,North,356,0.0,1.0,80,0.00,,,0.00,19,WeatherCatV1.12B45,2013-05-08 02:37:00,
2013-05-07 19:42:00,57.8,52.0,29.93,North,356,0.0,0.0,81,0.00,,,0.00,16,WeatherCatV1.12B45,2013-05-08 02:42:00,
2013-05-07 19:47:00,57.6,51.8,29.94,North,356,0.0,0.0,81,0.00,,,0.00,16,WeatherCatV1.12B45,2013-05-08 02:47:00,
2013-05-07 19:52:00,57.5,51.7,29.94,NNW,335,0.0,1.0,81,0.00,,,0.00,16,WeatherCatV1.12B45,2013-05-08 02:52:00,
2013-05-07 19:57:00,57.3,51.5,29.94,NW,323,0.0,0.0,81,0.00,,,0.00,16,WeatherCatV1.12B45,2013-05-08 02:57:00,
2013-05-07 20:02:00,57.2,52.1,29.94,NNW,329,0.0,0.0,83,0.00,,,0.00,5,WeatherCatV1.12B45,2013-05-08 03:02:00,
2013-05-07 20:07:00,57.0,51.9,29.94,NNW,329,0.0,0.0,83,0.00,,,0.00,0,WeatherCatV1.12B45,2013-05-08 03:07:00,
2013-05-07 20:12:00,56.9,51.8,29.94,NNW,332,0.0,0.0,83,0.00,,,0.00,0,WeatherCatV1.12B45,2013-05-08 03:12:00,
2013-05-07 20:17:00,56.7,51.6,29.94,North,356,0.0,1.0,83,0.00,,,0.00,0,WeatherCatV1.12B45,2013-05-08 03:17:00,
2013-05-07 20:22:00,56.6,51.5,29.94,North,354,0.0,0.0,83,0.00,,,0.00,0,WeatherCatV1.12B45,2013-05-08 03:22:00,
2013-05-07 20:27:00,56.5,51.4,29.94,North,353,0.0,0.0,83,0.00,,,0.00,0,WeatherCatV1.12B45,2013-05-08 03:27:00,
2013-05-07 20:32:00,56.3,51.8,29.95,North,350,0.0,0.0,85,0.00,,,0.00,0,WeatherCatV1.12B45,2013-05-08 03:32:00,
2013-05-07 20:37:00,56.3,51.8,29.95,NNW,346,0.0,0.0,85,0.00,,,0.00,0,WeatherCatV1.12B45,2013-05-08 03:37:00,
2013-05-07 20:42:00,56.2,52.1,29.95,North,349,0.0,0.0,86,0.00,,,0.00,0,WeatherCatV1.12B45,2013-05-08 03:42:00,
2013-05-07 20:47:00,56.0,51.9,29.95,North,353,0.0,0.0,86,0.00,,,0.00,0,WeatherCatV1.12B45,2013-05-08 03:47:00,
2013-05-07 20:52:00,56.0,51.9,29.95,North,353,0.0,0.0,86,0.00,,,0.00,0,WeatherCatV1.12B45,2013-05-08 03:52:00,
2013-05-07 20:57:00,-999.0,-99.9,29.95,North,-999,-999.0,0.0,-999,0.00,,,0.00,,WeatherCatV1.12B45,2013-05-08 03:57:00,
2013-05-07 21:02:00,-999.0,-99.9,29.96,North,-999,-999.0,0.0,-999,0.00,,,0.00,,WeatherCatV1.12B45,2013-05-08 04:02:00,
2013-05-07 21:07:00,-999.0,-99.9,29.96,North,-999,-999.0,0.0,-999,0.00,,,0.00,,WeatherCatV1.12B45,2013-05-08 04:07:00,
2013-05-07 21:12:00,55.6,-99.9,29.96,NNW,344,0.0,0.0,-999,0.00,,,0.00,,WeatherCatV1.12B45,2013-05-08 04:12:00,
2013-05-07 21:17:00,55.6,51.8,29.96,NNW,346,0.0,0.0,87,0.00,,,0.00,0,WeatherCatV1.12B45,2013-05-08 04:17:00,
2013-05-07 21:22:00,55.4,51.6,29.96,NNW,344,0.0,0.0,87,0.00,,,0.00,0,WeatherCatV1.12B45,2013-05-08 04:22:00,
2013-05-07 21:27:00,55.3,51.5,29.96,NNW,346,0.0,0.0,87,0.00,,,0.00,0,WeatherCatV1.12B45,2013-05-08 04:27:00,
2013-05-07 21:32:00,55.1,51.3,29.96,North,349,0.0,0.0,87,0.00,,,0.00,0,WeatherCatV1.12B45,2013-05-08 04:32:00,
2013-05-07 21:37:00,55.0,51.2,29.96,North,350,0.0,0.0,87,0.00,,,0.00,0,WeatherCatV1.12B45,2013-05-08 04:37:00,
2013-05-07 21:42:00,55.0,51.2,29.96,North,353,0.0,0.0,87,0.00,,,0.00,0,WeatherCatV1.12B45,2013-05-08 04:42:00,
2013-05-07 21:47:00,54.8,51.0,29.97,North,350,0.0,0.0,87,0.00,,,0.00,0,WeatherCatV1.12B45,2013-05-08 04:47:00,
2013-05-07 21:52:00,54.7,50.9,29.97,North,350,0.0,0.0,87,0.00,,,0.00,0,WeatherCatV1.12B45,2013-05-08 04:52:00,
2013-05-07 21:57:00,54.4,50.9,29.97,NNW,344,0.0,0.0,88,0.00,,,0.00,0,WeatherCatV1.12B45,2013-05-08 04:57:00,
2013-05-07 22:02:00,54.4,50.9,29.97,North,353,0.0,0.0,88,0.00,,,0.00,0,WeatherCatV1.12B45,2013-05-08 05:02:00,
2013-05-07 22:07:00,54.1,50.6,29.97,North,350,0.0,0.0,88,0.00,,,0.00,0,WeatherCatV1.12B45,2013-05-08 05:07:00,
2013-05-07 22:12:00,53.9,50.4,29.97,NNW,347,0.0,0.0,88,0.00,,,0.00,0,WeatherCatV1.12B45,2013-05-08 05:12:00,
2013-05-07 22:17:00,53.8,50.3,29.97,North,350,0.0,0.0,88,0.00,,,0.00,0,WeatherCatV1.12B45,2013-05-08 05:17:00,
2013-05-07 22:22:00,53.8,50.6,29.97,NNW,346,0.0,0.0,89,0.00,,,0.00,0,WeatherCatV1.12B45,2013-05-08 05:22:00,
2013-05-07 22:27:00,53.8,50.6,29.97,North,349,0.0,0.0,89,0.00,,,0.00,0,WeatherCatV1.12B45,2013-05-08 05:27:00,
2013-05-07 22:32:00,53.8,50.6,29.97,North,349,0.0,0.0,89,0.00,,,0.00,0,WeatherCatV1.12B45,2013-05-08 05:32:00,
2013-05-07 22:37:00,53.9,50.7,29.97,NNW,347,1.0,2.0,89,0.00,,,0.00,0,WeatherCatV1.12B45,2013-05-08 05:37:00,
2013-05-07 22:42:00,54.1,50.9,29.97,North,349,1.0,1.0,89,0.00,,,0.00,0,WeatherCatV1.12B45,2013-05-08 05:42:00,
2013-05-07 22:47:00,54.1,50.9,29.97,North,349,0.0,0.0,89,0.00,,,0.00,0,WeatherCatV1.12B45,2013-05-08 05:47:00,
2013-05-07 22:52:00,53.9,50.7,29.97,NNW,347,0.0,0.0,89,0.00,,,0.00,0,WeatherCatV1.12B45,2013-05-08 05:52:00,
2013-05-07 22:57:00,53.8,50.6,29.97,NNW,346,0.0,0.0,89,0.00,,,0.00,0,WeatherCatV1.12B45,2013-05-08 05:57:00,
2013-05-07 23:02:00,53.6,50.4,29.97,North,350,0.0,0.0,89,0.00,,,0.00,0,WeatherCatV1.12B45,2013-05-08 06:02:00,
2013-05-07 23:07:00,53.5,50.3,29.97,NNW,337,0.0,0.0,89,0.00,,,0.00,0,WeatherCatV1.12B45,2013-05-08 06:07:00,
2013-05-07 23:12:00,53.3,50.1,29.97,NNW,344,0.0,0.0,89,0.00,,,0.00,0,WeatherCatV1.12B45,2013-05-08 06:12:00,
2013-05-07 23:17:00,53.2,50.0,29.97,NNW,342,0.0,0.0,89,0.00,,,0.00,0,WeatherCatV1.12B45,2013-05-08 06:17:00,
2013-05-07 23:22:00,53.2,50.0,29.97,NNW,343,0.0,0.0,89,0.00,,,0.00,0,WeatherCatV1.12B45,2013-05-08 06:22:00,
2013-05-07 23:27:00,53.1,50.2,29.97,NNW,339,0.0,0.0,90,0.00,,,0.00,0,WeatherCatV1.12B45,2013-05-08 06:27:00,
2013-05-07 23:32:00,53.1,50.2,29.97,NNW,344,0.0,0.0,90,0.00,,,0.00,0,WeatherCatV1.12B45,2013-05-08 06:32:00,
2013-05-07 23:37:00,53.1,50.2,29.97,North,349,0.0,0.0,90,0.00,,,0.00,0,WeatherCatV1.12B45,2013-05-08 06:37:00,
2013-05-07 23:42:00,53.1,50.2,29.97,NNW,344,0.0,0.0,90,0.00,,,0.00,0,WeatherCatV1.12B45,2013-05-08 06:42:00,
2013-05-07 23:47:00,53.1,50.2,29.97,NNW,347,0.0,1.0,90,0.00,,,0.00,0,WeatherCatV1.12B45,2013-05-08 06:47:00,
2013-05-07 23:52:00,53.2,50.3,29.97,NNW,343,0.0,1.0,90,0.00,,,0.00,0,WeatherCatV1.12B45,2013-05-08 06:52:00,
2013-05-07 23:57:00,53.3,50.4,29.97,NNW,347,0.0,1.0,90,0.00,,,0.00,0,WeatherCatV1.12B45,2013-05-08 06:57:00,